Regional Weather Roundup
Issued by NWS

Home | Current Version | Previous Version | Text Only | Print | Product List | Glossary On
Versions: 1 2 3 4 5 6 7 8 9 10 11 12 13 14 15 16 17 18 19 20 21 22 23 24 25 26 27 28 29 30 31 32 33 34 35 36 37 38 39 40 41 42 43 44 45 46 47 48 49 50
000
ASHW40 PHFO 290043
RWRHI

WEATHER ROUNDUP FOR HAWAII
NATIONAL WEATHER SERVICE HONOLULU HI
200 PM HST WED JAN 28 2015

THIS IS AN AUTOMATED REPORT THAT HAS NOT BEEN QUALITY CONTROLLED.

NOTE..."FAIR" INDICATES FEW OR NO CLOUDS BELOW 12,000 FEET WITH NO
SIGNIFICANT WEATHER AND/OR OBSTRUCTIONS TO VISIBILITY.

* - THESE SITES REPORT LIMITED FIELDS

HIZ001>004-290100-
KAUAI-NIIHAU-

CITY           SKY/WX    TMP DP  RH WIND       PRES   REMARKS
LIHUE APT      PTSUNNY   79  65  62 SE12      29.92F
PORT ALLEN*      N/A     79 N/A N/A S7          N/A
POIPU*           N/A     79 N/A N/A S3G9        N/A
PRINCEVILLE*     N/A     75 N/A N/A MISG        N/A
KOKOLE POINT*  NOT AVBL
MOLOAA DAIRY*  NOT AVBL
WAIMEA HTS*      N/A    N/A N/A N/A SW8         N/A
PUU OPAE*        N/A    N/A N/A N/A CALM        N/A
PUU LUA*       NOT AVBL
MAKAHA RIDGE*  NOT AVBL
$$

HIZ005>011-290100-
OAHU-

CITY           SKY/WX    TMP DP  RH WIND       PRES   REMARKS
HONOLULU       MOSUNNY   79  66  64 SW9       29.90F
KALAELOA       SUNNY     78  65  63 S7        29.91F
KANEOHE MCB    SUNNY     80  67  64 VRB5      29.90F
WHEELER FIELD  PTSUNNY   77  62  59 S6        29.91F
BELLOWS*         N/A    N/A N/A N/A E2          N/A
KAHUKU*          N/A    N/A N/A N/A NW5         N/A
WHEELER*       NOT AVBL
WAIANAE HARBOR NOT AVBL
DILLINGHAM*      N/A     86  64  48 MISG        N/A
KAHUKU TRN*      N/A     64  54  68 N3G10       N/A
KAWAILOA*        N/A     81  64  57 SW3G9       N/A
KII*             N/A     77  64  65 NE6         N/A
MAKUA RANGE*     N/A     79  64  61 NW3         N/A
OAHU FOREST NW   N/A    N/A N/A N/A CALM        N/A
SCHOFIELD BRK*   N/A     57  43  58 MISG        N/A
SCHOFIELD S*   NOT AVBL
WAIANAE VLY*     N/A     84  64  51 S5G12       N/A
KUAOKALA*        N/A     75  61  60 CALM        N/A
HONOULIUULI*   NOT AVBL
MOKUOLOE IS*     N/A    N/A N/A N/A MISG        N/A
PALEHUA*         N/A     88  59  37 CALM        N/A
WAIAWA PHB*    NOT AVBL
$$

HIZ012>013-290100-
MOLOKAI-

CITY           SKY/WX    TMP DP  RH WIND       PRES   REMARKS
MOLOKAI AIRPT  PTSUNNY   76  62  62 NW3       29.92F
KALAUPAPA      NOT AVBL
MAKAPULAPAI*     N/A     81  64  57 E5          N/A
MOLOKAI 1*       N/A     73  64  73 N2G9        N/A
PUU ALII*        N/A     64  58  82 W2          N/A
$$

HIZ016-290100-
KAHOOLAWE-

CITY           SKY/WX    TMP DP  RH WIND       PRES   REMARKS
KAHOOLAWE*       N/A     75 N/A N/A E3G10       N/A
HAKIOAWA*        N/A     77  61  56 MISG      30.32F
HONOKANAIA*      N/A     83  64  52 E9G15     29.92F
KANELOA*         N/A     79  63  57 MISG      29.17F
KEALIALALO*    NOT AVBL
LUA MAKIKA*    NOT AVBL
$$

HIZ014>015-290100-
LANAI-

CITY           SKY/WX    TMP DP  RH WIND       PRES   REMARKS
LANAI CITY     CLOUDY    78  62  57 W8        29.97F
LANAI 1*         N/A     64  57  77 S5G12       N/A
$$

HIZ017>028-290100-
MAUI-

CITY           SKY/WX    TMP DP  RH WIND       PRES   REMARKS
KAHULUI        PTSUNNY   80  59  48 NE8       29.90F
KAPALUA-W MAUI MOSUNNY   81  59  47 N8        29.92
HANA AIRPORT   CLOUDY    75  64  69 S6        29.93F
HANA*            N/A     77 N/A N/A E6G13       N/A
HALEAKALA SUMM   N/A     57  16  19 S10         N/A
MAALAEA BAY*   NOT AVBL
HALEAKALA*     NOT AVBL
KAUPO GAP*       N/A     70  68  94 S2          N/A
KULA 1*          N/A     56  51  82 W3          N/A
$$

HIZ023>026-290100-
BIG ISLAND OF HAWAII COAST AND LOWER SLOPES-

CITY           SKY/WX    TMP DP  RH WIND       PRES   REMARKS
KAILUA KONA    CLOUDY    80  65  59 SW8       29.89F
HILO           MOSUNNY   80  63  55 E10       29.91F
HONOKAA*       NOT AVBL
KAWAIHAE MWT*    N/A     81 N/A N/A W7          N/A
KAWAIHAE*        N/A     79 N/A N/A W7          N/A
SOUTH POINT*     N/A     75 N/A N/A E14G21      N/A
UPOLU AIRPORT*   N/A    N/A N/A N/A E13         N/A
KAMUELA*       NOT AVBL
HAKALAU*         N/A     68  54  61 E5G12       N/A
KALOKO-HONOKO*   N/A     81  64  57 SW7       29.88F
PALI 2*          N/A     68  57  68 E9G18       N/A
KEALAKOMO*       N/A    N/A N/A N/A E8G14       N/A
KAUPULEHU*       N/A     75  55  50 W7G13       N/A
KAPAPALA*        N/A     72  61  68 SE1G12      N/A
LOWER KAHUKU*    N/A    N/A N/A N/A SE3G12      N/A
PUHE CS*         N/A     81  63  54 W5G10       N/A
PUHO CS*         N/A     80  62  54 SW3         N/A
PTA KEAMUKU*     N/A     70  55  60 CALM        N/A
WAIKOLOA*        N/A     75  55  50 W9G16       N/A
$$

HIZ027>028-290100-
BIG ISLAND OF HAWAII INTERIOR AND SUMMMITS-

CITY           SKY/WX    TMP DP  RH WIND       PRES   REMARKS
BRADSHAW FIELD SUNNY     67  51  56 W9        30.21F
MK VISITOR CEN NOT AVBL
MAUNA KEA*       N/A     41  21  45 NW12        N/A
MAUNA LOA*       N/A    N/A N/A N/A MISG        N/A
MAUNA LOA 1*   NOT AVBL
PTA KIPUKA*      N/A     68  52  56 NW7         N/A
PTA RANGE 17*    N/A     64  48  55 W7G14       N/A
PTA WEST*        N/A     66  54  63 NW10G17     N/A
NENE CABIN*      N/A    N/A N/A N/A SE5G12      N/A
AHUMOA*          N/A     54  51  89 NW5G12      N/A
PTA PORTABLE*  NOT AVBL
PUU MALI*      NOT AVBL
$$

HIC003-290100-
NORTHWEST ISLANDS-

CITY           SKY/WX    TMP DP  RH WIND       PRES   REMARKS
MIDWAY ISLAND  PTSUNNY   63  39  42 NW13G21   30.24F
MIDWAY NOS*    NOT AVBL
FRENCH FRIGATE NOT AVBL
$$

PHZ110>124-180-290100-
BUOY REPORTS

STATION/POSITION TIME  TEMP    WIND        PRES    WAVE   SWELL
                       AIR SEA DIR/SP/G            HT/PER HT/DIR
                 (UTC) (F)     (DEG/KT/KT) (MB)    (FT/S) (FT/D)
BUOY 51001       NOT AVBL
BUOY 51101       0000   70 73  320/ 10/ 14 1014.1F   9/15   8/310
BUOY 51100       0000   73     180/ 12     1013.5F
BUOY 51003       0000   76 80  350/  2/  4 1012.9F   8/16   8
BUOY 51004       NOT AVBL
BARBERS PT BUOY  NOT AVBL
WAIMEA BAY BUOY  0000      76                N/A     6/15   5/310
KAILUA BAY BUOY  0000      78                N/A     4/ 7   2/360
LANAI BUOY       0000      78                N/A     3/15   2/280
BARBERS PT 2     0000      78                N/A     5/17   3/310
PAUWELA MAUI     0000      76                N/A     6/17   5/320
HILO             0000      77                N/A     5/17
KANEOHE BAY BUOY 0000      77                N/A     4/ 8   2/350
HANALEI KAUAI    NOT AVBL
KAHULUI HARBOR   0000   77 76   40/  6/  8 1012.2F
HONOLULU HARBOR  0000   76 77  210/  4/  8 1012.1F
KILO NALU        NOT AVBL
HILO HARBOR      0000   81 76  100/  7/ 10 1012.0F
MOKUOLOE         0000      75              1012.0F
NAWILIWILI       NOT AVBL
WHOTS BUOY       NOT AVBL
BUOY 51028       NOT AVBL
$$

......................KEY........................................
  SKY/WX - SKY CONDITIONS/PRESENT WEATHER
  TMP    - TEMPERATURE IN FAHRENHEIT
  DWPT   - DEWPOINT IN FAHRENHEIT
  RH     - RELATIVE HUMIDITY IN PERCENT
  WIND   - DIRECTION AND SPEED /MPH FOR ISLANDS...KTS FOR BUOYS/
  PRES   - MEAN SEA LEVEL PRESSURE IN INCHES OF HG
  VSB    - VISIBILITY IN MILES
  HX     - HEAT INDEX
  WCI    - WIND CHILL INDEX
  VRB    - VARIABLE WIND DIRECTION
  N/A    - NOT AVAILABLE



USA.gov is the U.S. government's official web portal to all federal, state and local government web resources and services.